| time (UTC) | temp C | wind direction | speed KPH | gust KPH | rain 1hr cm | rain 24hr cm | rain mn cm | humidity % | barometer mb |
| 20260510032844 | 9 | 305 | 3.2 | 3.2 | 0.00 | 0.94 | 0.94 | 99 | 1007.4 |
| 20260510032341 | 8 | 49 | 0.0 | 3.2 | 0.00 | 0.94 | 0.94 | 99 | 1007.0 |
| 20260510031836 | 8 | 315 | 0.0 | 1.6 | 0.00 | 0.94 | 0.94 | 99 | 1007.2 |
| 20260510031332 | 8 | 315 | 0.0 | 1.6 | 0.00 | 0.94 | 0.94 | 99 | 1007.2 |
| 20260510030832 | 8 | 78 | 1.6 | 3.2 | 0.00 | 0.94 | 0.94 | 99 | 1007.2 |
| 20260510030328 | 8 | 67 | 1.6 | 3.2 | 0.00 | 0.94 | 0.94 | 99 | 1007.5 |
| 20260510025826 | 8 | 96 | 3.2 | 3.2 | 0.00 | 0.94 | 0.94 | 99 | 1007.2 |
| 20260510025323 | 8 | 66 | 0.0 | 3.2 | 0.00 | 0.94 | 0.94 | 99 | 1007.2 |
| 20260510024820 | 8 | 66 | 1.6 | 3.2 | 0.00 | 0.94 | 0.94 | 99 | 1007.1 |
| 20260510024317 | 8 | 84 | 1.6 | 3.2 | 0.00 | 0.94 | 0.94 | 99 | 1007.1 |
| 20260510023813 | 9 | 98 | 3.2 | 3.2 | 0.00 | 0.94 | 0.94 | 99 | 1006.8 |
| 20260510023309 | 9 | 16 | 3.2 | 3.2 | 0.00 | 0.94 | 0.94 | 99 | 1006.8 |
| 20260510022807 | 9 | 356 | 0.0 | 3.2 | 0.00 | 0.94 | 0.94 | 99 | 1006.5 |
| 20260510022307 | 9 | 19 | 0.0 | 3.2 | 0.00 | 0.94 | 0.94 | 99 | 1006.5 |
| 20260510021805 | 9 | 38 | 0.0 | 3.2 | 0.00 | 0.94 | 0.94 | 99 | 1006.5 |
| 20260510021304 | 9 | 44 | 1.6 | 3.2 | 0.00 | 0.94 | 0.94 | 99 | 1006.3 |
| 20260510020759 | 9 | 28 | 1.6 | 3.2 | 0.00 | 0.94 | 0.94 | 99 | 1006.4 |
| 20260510020254 | 8 | 327 | 1.6 | 3.2 | 0.00 | 0.94 | 0.94 | 99 | 1006.4 |
| 20260510015750 | 8 | 91 | 3.2 | 3.2 | 0.00 | 0.94 | 0.94 | 99 | 1006.5 |
| 20260510015247 | 9 | 72 | 1.6 | 3.2 | 0.00 | 0.94 | 0.94 | 99 | 1006.7 |
| 20260510014742 | 9 | 86 | 3.2 | 3.2 | 0.00 | 0.94 | 0.94 | 99 | 1006.3 |
| 20260510014239 | 10 | 48 | 0.0 | 3.2 | 0.00 | 0.94 | 0.94 | 99 | 1006.4 |
| 20260510013735 | 10 | 47 | 3.2 | 3.2 | 0.00 | 0.94 | 0.94 | 99 | 1006.2 |
| 20260510013231 | 10 | 72 | 1.6 | 3.2 | 0.00 | 0.94 | 0.94 | 99 | 1006.2 |
| 20260510012731 | 10 | 69 | 0.0 | 3.2 | 0.00 | 0.94 | 0.94 | 99 | 1006.3 |
| 20260510012226 | 10 | 17 | 0.0 | 1.6 | 0.00 | 0.94 | 0.94 | 99 | 1006.3 |
| 20260510011720 | 10 | 35 | 0.0 | 1.6 | 0.00 | 0.94 | 0.94 | 99 | 1006.3 |
| 20260510011216 | 10 | 145 | 0.0 | 4.8 | 0.00 | 0.94 | 0.94 | 98 | 1006.3 |
| 20260510010713 | 10 | 352 | 1.6 | 3.2 | 0.00 | 0.94 | 0.94 | 99 | 1006.3 |
| 20260510010210 | 10 | 175 | 3.2 | 3.2 | 0.00 | 0.94 | 0.94 | 99 | 1006.2 |
| 20260510005707 | 10 | 338 | 1.6 | 3.2 | 0.00 | 0.94 | 0.94 | 99 | 1005.9 |
| 20260510005203 | 10 | 291 | 0.0 | 3.2 | 0.00 | 0.94 | 0.94 | 99 | 1005.9 |
| 20260510004702 | 10 | 245 | 0.0 | 3.2 | 0.00 | 0.94 | 0.94 | 99 | 1005.8 |
| 20260510004158 | 10 | 331 | 3.2 | 4.8 | 0.00 | 0.94 | 0.94 | 99 | 1005.9 |
| 20260510003656 | 10 | 343 | 1.6 | 3.2 | 0.00 | 0.94 | 0.94 | 99 | 1005.8 |
| 20260510003151 | 10 | 351 | 0.0 | 1.6 | 0.00 | 0.94 | 0.94 | 99 | 1005.6 |
| 20260510002646 | 11 | 336 | 1.6 | 3.2 | 0.00 | 0.94 | 0.94 | 99 | 1005.6 |
| 20260510002143 | 11 | 37 | 1.6 | 3.2 | 0.00 | 0.94 | 0.94 | 99 | 1005.6 |
| 20260510001640 | 11 | 37 | 1.6 | 3.2 | 0.00 | 0.94 | 0.94 | 99 | 1005.5 |
| 20260510001139 | 11 | 67 | 0.0 | 3.2 | 0.00 | 0.94 | 0.94 | 99 | 1005.5 |
| 20260510000638 | 11 | 337 | 0.0 | 3.2 | 0.00 | 0.94 | 0.94 | 99 | 1005.6 |
| 20260510000136 | 11 | 315 | 3.2 | 3.2 | 0.00 | 0.94 | 0.94 | 99 | 1005.6 |
| 20260509235632 | 11 | 55 | 0.0 | 3.2 | 0.00 | 0.94 | 0.94 | 99 | 1005.5 |
| 20260509235129 | 11 | 284 | 1.6 | 3.2 | 0.00 | 0.94 | 0.94 | 99 | 1005.7 |
| 20260509234625 | 11 | 38 | 0.0 | 3.2 | 0.00 | 0.94 | 0.94 | 99 | 1005.6 |
| 20260509234123 | 11 | 316 | 3.2 | 3.2 | 0.00 | 0.94 | 0.94 | 99 | 1005.4 |
| 20260509233620 | 11 | 339 | 0.0 | 3.2 | 0.00 | 0.94 | 0.94 | 99 | 1005.2 |
| 20260509233117 | 11 | 58 | 1.6 | 3.2 | 0.00 | 0.94 | 0.94 | 98 | 1005.2 |
| 20260509232613 | 11 | 336 | 0.0 | 3.2 | 0.00 | 0.94 | 0.94 | 98 | 1005.3 |
| 20260509232111 | 11 | 332 | 1.6 | 3.2 | 0.00 | 0.94 | 0.94 | 98 | 1005.3 |
| 20260509231607 | 12 | 322 | 1.6 | 3.2 | 0.00 | 0.94 | 0.94 | 97 | 1005.2 |
| 20260509231105 | 12 | 326 | 0.0 | 3.2 | 0.00 | 0.94 | 0.94 | 95 | 1005.1 |
| 20260509230601 | 12 | 76 | 0.0 | 3.2 | 0.00 | 0.94 | 0.94 | 93 | 1005.0 |
| 20260509230059 | 12 | 83 | 1.6 | 3.2 | 0.00 | 0.94 | 0.94 | 93 | 1005.0 |
| 20260509225554 | 12 | 97 | 3.2 | 4.8 | 0.00 | 0.94 | 0.94 | 93 | 1005.2 |
| 20260509225050 | 12 | 60 | 1.6 | 4.8 | 0.00 | 0.94 | 0.94 | 94 | 1005.1 |
| 20260509224545 | 12 | 29 | 1.6 | 4.8 | 0.00 | 0.94 | 0.94 | 93 | 1005.3 |
| 20260509224043 | 12 | 48 | 0.0 | 4.8 | 0.00 | 0.94 | 0.94 | 92 | 1005.6 |
| 20260509223539 | 13 | 122 | 6.4 | 6.4 | 0.00 | 0.94 | 0.94 | 93 | 1005.5 |
| 20260509223037 | 12 | 337 | 0.0 | 3.2 | 0.00 | 0.94 | 0.94 | 94 | 1005.5 |
| 20260509222533 | 12 | 240 | 4.8 | 6.4 | 0.00 | 0.94 | 0.94 | 94 | 1005.4 |
| 20260509222029 | 12 | 218 | 1.6 | 3.2 | 0.00 | 0.94 | 0.94 | 94 | 1005.2 |
| 20260509221525 | 12 | 202 | 8.0 | 8.0 | 0.00 | 0.94 | 0.94 | 94 | 1005.2 |
| 20260509221021 | 12 | 323 | 3.2 | 6.4 | 0.00 | 0.94 | 0.94 | 95 | 1005.2 |
| 20260509220517 | 12 | 201 | 3.2 | 8.0 | 0.00 | 0.94 | 0.94 | 95 | 1005.2 |
| 20260509220014 | 12 | 203 | 3.2 | 9.7 | 0.00 | 0.94 | 0.94 | 94 | 1005.4 |
| 20260509215509 | 12 | 207 | 3.2 | 4.8 | 0.00 | 0.94 | 0.94 | 95 | 1005.4 |
| 20260509215007 | 12 | 214 | 0.0 | 3.2 | 0.00 | 0.94 | 0.94 | 95 | 1005.5 |
| 20260509214504 | 12 | 194 | 1.6 | 4.8 | 0.00 | 0.94 | 0.94 | 95 | 1005.3 |
| 20260509214000 | 12 | 126 | 3.2 | 8.0 | 0.00 | 0.94 | 0.94 | 95 | 1005.6 |
| 20260509213456 | 12 | 182 | 3.2 | 4.8 | 0.00 | 0.94 | 0.94 | 95 | 1005.4 |
| 20260509212954 | 12 | 243 | 0.0 | 6.4 | 0.00 | 0.94 | 0.94 | 95 | 1005.4 |
| 20260509212451 | 12 | 216 | 3.2 | 6.4 | 0.00 | 0.94 | 0.94 | 95 | 1005.7 |
| 20260509211947 | 12 | 49 | 1.6 | 9.7 | 0.00 | 0.94 | 0.94 | 96 | 1005.6 |
| 20260509211442 | 12 | 230 | 1.6 | 6.4 | 0.00 | 0.94 | 0.94 | 97 | 1005.6 |
| 20260509210939 | 12 | 243 | 6.4 | 8.0 | 0.00 | 0.94 | 0.94 | 96 | 1005.7 |
| 20260509210437 | 12 | 258 | 4.8 | 6.4 | 0.00 | 0.94 | 0.94 | 97 | 1005.8 |
| 20260509205933 | 12 | 53 | 3.2 | 6.4 | 0.00 | 0.94 | 0.94 | 98 | 1005.9 |
| 20260509205433 | 12 | 355 | 4.8 | 6.4 | 0.00 | 0.94 | 0.94 | 98 | 1005.8 |
| 20260509204929 | 12 | 258 | 3.2 | 3.2 | 0.00 | 0.94 | 0.94 | 99 | 1006.0 |
| 20260509204425 | 11 | 177 | 0.0 | 3.2 | 0.05 | 0.94 | 0.94 | 99 | 1006.0 |
| 20260509203922 | 11 | 156 | 0.0 | 4.8 | 0.05 | 0.94 | 0.94 | 99 | 1006.0 |
| 20260509203418 | 11 | 36 | 0.0 | 4.8 | 0.00 | 0.91 | 0.91 | 99 | 1006.1 |
| 20260509202915 | 11 | 97 | 3.2 | 4.8 | 0.00 | 0.91 | 0.91 | 99 | 1006.0 |
| 20260509202411 | 11 | 88 | 1.6 | 4.8 | 0.00 | 0.91 | 0.91 | 99 | 1006.1 |
| 20260509201907 | 11 | 122 | 3.2 | 3.2 | 0.00 | 0.91 | 0.91 | 99 | 1006.3 |
| 20260509201402 | 11 | 106 | 0.0 | 3.2 | 0.00 | 0.91 | 0.91 | 99 | 1006.2 |
| 20260509200859 | 11 | 77 | 0.0 | 4.8 | 0.00 | 0.91 | 0.91 | 99 | 1006.3 |
| 20260509200354 | 11 | 47 | 3.2 | 3.2 | 0.00 | 0.91 | 0.91 | 99 | 1006.3 |
| 20260509195851 | 11 | 41 | 3.2 | 6.4 | 0.00 | 0.91 | 0.91 | 99 | 1006.3 |
| 20260509195346 | 11 | 107 | 3.2 | 3.2 | 0.05 | 0.91 | 0.91 | 99 | 1006.4 |
| 20260509194845 | 11 | 72 | 0.0 | 3.2 | 0.00 | 0.91 | 0.91 | 99 | 1006.6 |
| 20260509194342 | 11 | 232 | 0.0 | 3.2 | 0.00 | 0.91 | 0.91 | 99 | 1006.6 |
| 20260509193838 | 11 | 100 | 1.6 | 1.6 | 0.00 | 0.91 | 0.91 | 99 | 1006.6 |
| 20260509193338 | 11 | 24 | 0.0 | 3.2 | 0.00 | 0.91 | 0.91 | 99 | 1006.6 |
| 20260509192835 | 11 | 41 | 1.6 | 4.8 | 0.00 | 0.91 | 0.91 | 99 | 1006.8 |
| 20260509192331 | 11 | 100 | 1.6 | 4.8 | 0.00 | 0.91 | 0.91 | 99 | 1006.8 |
| 20260509191826 | 11 | 98 | 3.2 | 3.2 | 0.00 | 0.91 | 0.91 | 99 | 1006.8 |
| 20260509191322 | 11 | 63 | 3.2 | 3.2 | 0.05 | 0.91 | 0.91 | 99 | 1006.9 |
| 20260509190818 | 11 | 86 | 3.2 | 3.2 | 0.05 | 0.91 | 0.91 | 99 | 1006.8 |
| 20260509190315 | 11 | 173 | 3.2 | 4.8 | 0.13 | 0.89 | 0.89 | 99 | 1006.9 |
| 20260509185813 | 11 | 94 | 1.6 | 4.8 | 0.05 | 0.89 | 0.89 | 99 | 1007.1 |
| 20260509185308 | 11 | 135 | 1.6 | 4.8 | 0.13 | 0.89 | 0.89 | 98 | 1006.9 |
| 20260509184806 | 11 | 83 | 1.6 | 6.4 | 0.18 | 0.89 | 0.89 | 98 | 1007.0 |
| 20260509184303 | 11 | 134 | 3.2 | 4.8 | 0.05 | 0.86 | 0.86 | 98 | 1006.8 |
| 20260509183759 | 11 | 87 | 3.2 | 3.2 | 0.00 | 0.86 | 0.86 | 98 | 1006.9 |
| 20260509183255 | 11 | 82 | 0.0 | 4.8 | 0.00 | 0.86 | 0.86 | 98 | 1006.9 |
| 20260509182750 | 11 | 335 | 1.6 | 4.8 | 0.05 | 0.86 | 0.86 | 98 | 1006.9 |
| 20260509182248 | 11 | 253 | 3.2 | 4.8 | 0.05 | 0.86 | 0.86 | 98 | 1006.8 |
| 20260509181745 | 11 | 117 | 1.6 | 3.2 | 0.00 | 0.84 | 0.84 | 98 | 1006.8 |
| 20260509181243 | 11 | 119 | 1.6 | 4.8 | 0.00 | 0.84 | 0.84 | 97 | 1007.0 |
| 20260509180740 | 11 | 14 | 4.8 | 8.0 | 0.00 | 0.84 | 0.84 | 96 | 1006.9 |
| 20260509180236 | 11 | 266 | 4.8 | 16.1 | 0.00 | 0.84 | 0.84 | 95 | 1006.8 |
| 20260509175733 | 11 | 88 | 3.2 | 6.4 | 0.00 | 0.84 | 0.84 | 96 | 1006.9 |
| 20260509175229 | 11 | 70 | 0.0 | 8.0 | 0.00 | 0.84 | 0.84 | 96 | 1006.7 |
| 20260509174725 | 11 | 237 | 4.8 | 9.7 | 0.00 | 0.84 | 0.84 | 96 | 1006.7 |
| 20260509174220 | 11 | 139 | 3.2 | 8.0 | 0.00 | 0.84 | 0.84 | 96 | 1006.8 |
| 20260509173717 | 11 | 215 | 9.7 | 9.7 | 0.00 | 0.84 | 0.84 | 97 | 1006.8 |
| 20260509173212 | 11 | 169 | 3.2 | 9.7 | 0.00 | 0.84 | 0.84 | 97 | 1006.9 |
| 20260509172708 | 11 | 13 | 0.0 | 6.4 | 0.00 | 0.84 | 0.84 | 98 | 1006.8 |
| 20260509172205 | 10 | 180 | 3.2 | 9.7 | 0.00 | 0.84 | 0.84 | 98 | 1006.7 |
| 20260509171700 | 10 | 111 | 1.6 | 8.0 | 0.00 | 0.84 | 0.84 | 99 | 1006.6 |
| 20260509171157 | 10 | 127 | 3.2 | 3.2 | 0.00 | 0.84 | 0.84 | 99 | 1006.5 |
| 20260509170654 | 10 | 172 | 1.6 | 4.8 | 0.00 | 0.84 | 0.84 | 99 | 1006.8 |
| 20260509170150 | 10 | 75 | 3.2 | 3.2 | 0.00 | 0.84 | 0.84 | 99 | 1006.8 |
| 20260509165648 | 10 | 164 | 1.6 | 3.2 | 0.00 | 0.84 | 0.84 | 99 | 1006.7 |
| 20260509165144 | 10 | 119 | 1.6 | 9.7 | 0.00 | 0.84 | 0.84 | 99 | 1007.0 |
| 20260509164640 | 10 | 218 | 4.8 | 6.4 | 0.00 | 0.84 | 0.84 | 99 | 1006.9 |
| 20260509164136 | 10 | 132 | 1.6 | 3.2 | 0.00 | 0.84 | 0.84 | 99 | 1007.0 |
| 20260509163634 | 10 | 111 | 4.8 | 4.8 | 0.05 | 0.84 | 0.84 | 99 | 1006.8 |
| 20260509163129 | 10 | 88 | 3.2 | 3.2 | 0.05 | 0.84 | 0.84 | 99 | 1007.1 |
| 20260509162627 | 10 | 60 | 3.2 | 6.4 | 0.00 | 0.84 | 0.84 | 99 | 1007.1 |
| 20260509162123 | 10 | 193 | 3.2 | 4.8 | 0.05 | 0.84 | 0.84 | 99 | 1007.0 |
| 20260509161619 | 10 | 118 | 3.2 | 4.8 | 0.05 | 0.84 | 0.84 | 99 | 1007.1 |
| 20260509161114 | 10 | 262 | 3.2 | 4.8 | 0.00 | 0.81 | 0.81 | 99 | 1007.1 |
| 20260509160610 | 10 | 35 | 1.6 | 4.8 | 0.00 | 0.81 | 0.81 | 99 | 1007.2 |
| 20260509160105 | 10 | 284 | 4.8 | 8.0 | 0.00 | 0.81 | 0.81 | 99 | 1007.4 |
| 20260509155602 | 11 | 0 | 0.0 | 4.8 | 0.00 | 0.81 | 0.81 | 99 | 1007.5 |
| 20260509155058 | 10 | 135 | 0.0 | 8.0 | 0.00 | 0.81 | 0.81 | 99 | 1007.4 |
| 20260509154554 | 10 | 78 | 4.8 | 4.8 | 0.00 | 0.81 | 0.81 | 99 | 1007.6 |
| 20260509154052 | 10 | 106 | 3.2 | 8.0 | 0.00 | 0.81 | 0.81 | 99 | 1007.5 |
| 20260509153549 | 10 | 240 | 3.2 | 6.4 | 0.00 | 0.81 | 0.81 | 99 | 1007.6 |
| 20260509153046 | 10 | 96 | 1.6 | 3.2 | 0.00 | 0.81 | 0.81 | 99 | 1007.6 |
| 20260509152542 | 10 | 147 | 0.0 | 6.4 | 0.00 | 0.81 | 0.81 | 99 | 1007.5 |
| 20260509152039 | 10 | 18 | 3.2 | 4.8 | 0.05 | 0.81 | 0.81 | 99 | 1007.8 |
| 20260509151535 | 10 | 114 | 3.2 | 4.8 | 0.05 | 0.81 | 0.81 | 99 | 1007.9 |
| 20260509151033 | 10 | 143 | 0.0 | 6.4 | 0.00 | 0.81 | 0.81 | 99 | 1008.0 |
| 20260509150530 | 10 | 296 | 1.6 | 4.8 | 0.00 | 0.81 | 0.81 | 99 | 1007.8 |
| 20260509150029 | 10 | 6 | 1.6 | 4.8 | 0.05 | 0.81 | 0.81 | 99 | 1007.7 |
| 20260509145524 | 10 | 87 | 1.6 | 3.2 | 0.05 | 0.81 | 0.81 | 99 | 1007.7 |
| 20260509145019 | 10 | 23 | 0.0 | 3.2 | 0.13 | 0.81 | 0.81 | 99 | 1008.0 |
| 20260509144516 | 10 | 77 | 1.6 | 3.2 | 0.18 | 0.81 | 0.81 | 99 | 1007.9 |
| 20260509144013 | 10 | 127 | 3.2 | 6.4 | 0.05 | 0.79 | 0.79 | 99 | 1008.2 |
| 20260509143510 | 10 | 111 | 1.6 | 3.2 | 0.05 | 0.76 | 0.76 | 99 | 1008.2 |
| 20260509143008 | 10 | 68 | 1.6 | 4.8 | 0.13 | 0.76 | 0.76 | 99 | 1008.1 |
| 20260509142504 | 10 | 121 | 0.0 | 3.2 | 0.13 | 0.76 | 0.76 | 99 | 1008.1 |
| 20260509141959 | 10 | 127 | 1.6 | 3.2 | 0.05 | 0.74 | 0.74 | 99 | 1008.1 |
| 20260509141455 | 9 | 177 | 1.6 | 3.2 | 0.05 | 0.74 | 0.74 | 99 | 1008.1 |
| 20260509140953 | 9 | 202 | 0.0 | 3.2 | 0.05 | 0.74 | 0.74 | 99 | 1008.1 |
| 20260509140449 | 9 | 113 | 1.6 | 3.2 | 0.13 | 0.74 | 0.74 | 99 | 1008.3 |
| 20260509135947 | 9 | 124 | 0.0 | 3.2 | 0.13 | 0.71 | 0.71 | 99 | 1008.1 |
| 20260509135444 | 9 | 33 | 0.0 | 3.2 | 0.13 | 0.71 | 0.71 | 99 | 1008.3 |
| 20260509134941 | 9 | 347 | 1.6 | 3.2 | 0.13 | 0.71 | 0.71 | 99 | 1008.0 |
| 20260509134439 | 9 | 336 | 0.0 | 3.2 | 0.05 | 0.69 | 0.69 | 99 | 1008.1 |
| 20260509133937 | 9 | 272 | 1.6 | 4.8 | 0.05 | 0.69 | 0.69 | 99 | 1008.3 |
| 20260509133433 | 9 | 120 | 1.6 | 3.2 | 0.13 | 0.69 | 0.69 | 99 | 1008.1 |
| 20260509132931 | 9 | 208 | 3.2 | 6.4 | 0.13 | 0.66 | 0.66 | 99 | 1008.3 |
| 20260509132429 | 8 | 171 | 0.0 | 4.8 | 0.13 | 0.66 | 0.66 | 99 | 1008.1 |
| 20260509131925 | 8 | 237 | 4.8 | 8.0 | 0.13 | 0.66 | 0.66 | 99 | 1008.4 |
| 20260509131423 | 8 | 310 | 3.2 | 4.8 | 0.05 | 0.64 | 0.64 | 99 | 1008.4 |
| 20260509130919 | 8 | 267 | 3.2 | 4.8 | 0.05 | 0.64 | 0.64 | 99 | 1008.3 |
| 20260509130414 | 8 | 184 | 0.0 | 4.8 | 0.05 | 0.61 | 0.61 | 99 | 1008.4 |
| 20260509125912 | 8 | 128 | 4.8 | 4.8 | 0.13 | 0.61 | 0.61 | 99 | 1008.4 |
| 20260509125409 | 8 | 82 | 0.0 | 3.2 | 0.13 | 0.61 | 0.61 | 99 | 1008.4 |
| 20260509124904 | 8 | 343 | 0.0 | 3.2 | 0.13 | 0.58 | 0.58 | 99 | 1008.2 |
| 20260509124402 | 8 | 12 | 0.0 | 4.8 | 0.18 | 0.58 | 0.58 | 99 | 1008.4 |
| 20260509123859 | 8 | 127 | 4.8 | 4.8 | 0.23 | 0.56 | 0.56 | 99 | 1008.4 |
| 20260509123356 | 8 | 48 | 4.8 | 4.8 | 0.23 | 0.56 | 0.56 | 99 | 1008.4 |
| 20260509122852 | 8 | 34 | 4.8 | 4.8 | 0.36 | 0.53 | 0.53 | 99 | 1008.6 |
| 20260509122349 | 7 | 58 | 4.8 | 4.8 | 0.30 | 0.51 | 0.51 | 99 | 1008.6 |
| 20260509121846 | 7 | 29 | 3.2 | 6.4 | 0.18 | 0.46 | 0.46 | 99 | 1008.8 |
| 20260509121343 | 7 | 100 | 1.6 | 4.8 | 0.23 | 0.46 | 0.46 | 99 | 1008.9 |
| 20260509120841 | 7 | 38 | 3.2 | 3.2 | 0.23 | 0.43 | 0.43 | 99 | 1008.7 |
| 20260509120339 | 7 | 75 | 1.6 | 4.8 | 0.18 | 0.43 | 0.43 | 99 | 1008.8 |
| 20260509115837 | 6 | 77 | 1.6 | 3.2 | 0.13 | 0.41 | 0.41 | 99 | 1008.9 |
| 20260509115333 | 6 | 70 | 3.2 | 3.2 | 0.13 | 0.38 | 0.38 | 99 | 1008.7 |
| 20260509114831 | 6 | 72 | 3.2 | 4.8 | 0.13 | 0.38 | 0.38 | 99 | 1008.8 |
| 20260509114330 | 6 | 50 | 3.2 | 3.2 | 0.18 | 0.38 | 0.38 | 99 | 1009.0 |
| 20260509113829 | 6 | 38 | 3.2 | 4.8 | 0.13 | 0.36 | 0.36 | 99 | 1008.7 |
| 20260509113325 | 6 | 76 | 3.2 | 4.8 | 0.13 | 0.33 | 0.33 | 99 | 1008.8 |
| 20260509112822 | 6 | 73 | 4.8 | 4.8 | 0.13 | 0.33 | 0.33 | 99 | 1008.7 |
| 20260509112319 | 6 | 72 | 3.2 | 3.2 | 0.18 | 0.33 | 0.33 | 99 | 1008.9 |
| 20260509111816 | 6 | 89 | 3.2 | 3.2 | 0.18 | 0.30 | 0.30 | 99 | 1008.8 |
| 20260509111313 | 6 | 95 | 3.2 | 4.8 | 0.18 | 0.28 | 0.28 | 99 | 1008.7 |
| 20260509110811 | 6 | 83 | 3.2 | 4.8 | 0.18 | 0.28 | 0.28 | 99 | 1008.7 |
| 20260509110307 | 6 | 87 | 3.2 | 3.2 | 0.18 | 0.25 | 0.25 | 99 | 1008.4 |
| 20260509105805 | 5 | 39 | 1.6 | 3.2 | 0.18 | 0.23 | 0.23 | 99 | 1008.6 |
| 20260509105306 | 5 | 51 | 0.0 | 3.2 | 0.23 | 0.23 | 0.23 | 99 | 1008.4 |
| 20260509104759 | 5 | 81 | 3.2 | 4.8 | 0.23 | 0.20 | 0.20 | 99 | 1008.4 |
| 20260509104256 | 5 | 74 | 3.2 | 3.2 | 0.18 | 0.18 | 0.18 | 99 | 1008.5 |
| 20260509103754 | 5 | 74 | 3.2 | 3.2 | 0.18 | 0.18 | 0.18 | 99 | 1008.6 |
| 20260509103251 | 5 | 63 | 3.2 | 3.2 | 0.18 | 0.15 | 0.15 | 99 | 1008.7 |
| 20260509102749 | 5 | 49 | 3.2 | 4.8 | 0.18 | 0.15 | 0.15 | 99 | 1008.7 |
| 20260509102246 | 5 | 89 | 4.8 | 4.8 | 0.13 | 0.13 | 0.13 | 99 | 1008.7 |
| 20260509101743 | 5 | 92 | 1.6 | 3.2 | 0.13 | 0.10 | 0.10 | 99 | 1008.8 |
| 20260509101239 | 5 | 97 | 1.6 | 3.2 | 0.05 | 0.10 | 0.10 | 99 | 1008.7 |
| 20260509100736 | 5 | 87 | 3.2 | 3.2 | 0.05 | 0.10 | 0.10 | 99 | 1008.4 |
| 20260509100233 | 5 | 45 | 3.2 | 4.8 | 0.13 | 0.10 | 0.10 | 99 | 1008.4 |
| 20260509095730 | 5 | 62 | 3.2 | 4.8 | 0.05 | 0.08 | 0.08 | 99 | 1008.3 |
| 20260509095227 | 5 | 59 | 3.2 | 3.2 | 0.00 | 0.08 | 0.08 | 99 | 1008.6 |
| 20260509094724 | 5 | 84 | 3.2 | 3.2 | 0.00 | 0.08 | 0.08 | 99 | 1008.6 |
| 20260509094221 | 5 | 81 | 3.2 | 3.2 | 0.00 | 0.08 | 0.08 | 99 | 1008.3 |
| 20260509093719 | 5 | 56 | 4.8 | 4.8 | 0.00 | 0.08 | 0.08 | 99 | 1008.2 |
| 20260509093216 | 5 | 38 | 4.8 | 4.8 | 0.00 | 0.08 | 0.08 | 99 | 1008.2 |
| 20260509092714 | 5 | 82 | 3.2 | 3.2 | 0.00 | 0.08 | 0.08 | 99 | 1008.6 |
| 20260509092212 | 5 | 72 | 1.6 | 3.2 | 0.00 | 0.08 | 0.08 | 99 | 1008.6 |
| 20260509091710 | 5 | 73 | 3.2 | 3.2 | 0.00 | 0.08 | 0.08 | 99 | 1008.5 |
| 20260509091205 | 5 | 62 | 3.2 | 3.2 | 0.00 | 0.08 | 0.08 | 99 | 1008.6 |
| 20260509090704 | 5 | 75 | 3.2 | 4.8 | 0.05 | 0.08 | 0.08 | 99 | 1008.5 |
| 20260509090200 | 5 | 57 | 1.6 | 3.2 | 0.05 | 0.08 | 0.08 | 99 | 1008.5 |
| 20260509085658 | 5 | 73 | 3.2 | 4.8 | 0.05 | 0.05 | 0.05 | 99 | 1008.5 |
| 20260509085154 | 5 | 69 | 3.2 | 3.2 | 0.05 | 0.05 | 0.05 | 99 | 1008.8 |
| 20260509084652 | 5 | 53 | 3.2 | 3.2 | 0.00 | 0.05 | 0.05 | 99 | 1008.8 |
| 20260509084148 | 5 | 78 | 3.2 | 3.2 | 0.00 | 0.05 | 0.05 | 99 | 1008.9 |
| 20260509083646 | 5 | 78 | 3.2 | 4.8 | 0.00 | 0.05 | 0.05 | 99 | 1008.7 |
| 20260509083142 | 5 | 60 | 3.2 | 4.8 | 0.00 | 0.05 | 0.05 | 99 | 1008.5 |
| 20260509082640 | 5 | 86 | 3.2 | 3.2 | 0.00 | 0.05 | 0.05 | 99 | 1008.8 |
| 20260509082136 | 5 | 89 | 0.0 | 3.2 | 0.05 | 0.05 | 0.05 | 99 | 1009.0 |
| 20260509081633 | 5 | 86 | 3.2 | 3.2 | 0.05 | 0.05 | 0.05 | 99 | 1008.8 |
| 20260509081131 | 5 | 34 | 0.0 | 1.6 | 0.00 | 0.05 | 0.05 | 99 | 1008.9 |
| 20260509080629 | 5 | 57 | 3.2 | 3.2 | 0.00 | 0.05 | 0.05 | 99 | 1008.9 |
| 20260509080126 | 5 | 50 | 1.6 | 3.2 | 0.00 | 0.05 | 0.05 | 99 | 1009.3 |
| 20260509075624 | 5 | 55 | 3.2 | 3.2 | 0.00 | 0.05 | 0.05 | 98 | 1009.3 |
| 20260509075121 | 5 | 61 | 3.2 | 3.2 | 0.00 | 0.05 | 0.05 | 98 | 1009.3 |
| 20260509074618 | 5 | 62 | 3.2 | 3.2 | 0.00 | 0.05 | 0.05 | 98 | 1009.2 |
| 20260509074115 | 5 | 87 | 1.6 | 3.2 | 0.00 | 0.05 | 0.05 | 98 | 1009.0 |
| 20260509073611 | 5 | 54 | 3.2 | 3.2 | 0.00 | 0.05 | 0.05 | 98 | 1009.0 |
| 20260509073108 | 5 | 56 | 3.2 | 3.2 | 0.00 | 0.05 | 0.05 | 98 | 1009.2 |
| 20260509072605 | 5 | 84 | 3.2 | 4.8 | 0.00 | 0.05 | 0.05 | 98 | 1009.0 |
| 20260509072101 | 5 | 61 | 1.6 | 3.2 | 0.00 | 0.05 | 0.05 | 98 | 1008.9 |
| 20260509071558 | 5 | 57 | 3.2 | 4.8 | 0.00 | 0.05 | 0.05 | 97 | 1008.9 |
| 20260509071055 | 5 | 79 | 3.2 | 3.2 | 0.05 | 0.05 | 0.05 | 97 | 1008.8 |
| 20260509070553 | 5 | 73 | 3.2 | 3.2 | 0.05 | 0.05 | 0.05 | 97 | 1008.8 |
| 20260509070049 | 5 | 59 | 3.2 | 3.2 | 0.00 | 0.03 | 0.03 | 96 | 1009.0 |
| 20260509065544 | 5 | 52 | 3.2 | 3.2 | 0.00 | 0.03 | 0.03 | 96 | 1009.0 |
| 20260509065041 | 5 | 67 | 3.2 | 3.2 | 0.00 | 0.03 | 0.03 | 96 | 1009.0 |
| 20260509064539 | 5 | 64 | 3.2 | 3.2 | 0.00 | 0.03 | 0.03 | 96 | 1009.1 |
| 20260509064037 | 5 | 67 | 3.2 | 3.2 | 0.05 | 0.03 | 0.03 | 95 | 1009.2 |
| 20260509063531 | 5 | 44 | 3.2 | 3.2 | 0.05 | 0.03 | 0.03 | 95 | 1009.3 |
| 20260509063029 | 5 | 54 | 3.2 | 3.2 | 0.00 | 0.03 | 0.03 | 95 | 1009.3 |
| 20260509062526 | 5 | 41 | 1.6 | 3.2 | 0.05 | 0.03 | 0.03 | 94 | 1009.3 |
| 20260509062024 | 5 | 62 | 3.2 | 3.2 | 0.05 | 0.03 | 0.03 | 94 | 1009.5 |
| 20260509061520 | 5 | 56 | 3.2 | 4.8 | 0.00 | 0.00 | 0.00 | 93 | 1009.5 |
| 20260509061018 | 5 | 52 | 3.2 | 3.2 | 0.05 | 0.00 | 0.00 | 93 | 1009.8 |
| 20260509060515 | 5 | 72 | 3.2 | 3.2 | 0.05 | 0.00 | 0.00 | 93 | 1009.5 |
| 20260509060011 | 5 | 65 | 3.2 | 3.2 | 0.00 | 0.00 | 0.00 | 92 | 1009.6 |
| 20260509055506 | 5 | 63 | 3.2 | 3.2 | 0.00 | 0.00 | 0.00 | 92 | 1009.7 |
| 20260509055003 | 5 | 27 | 1.6 | 3.2 | 0.00 | 0.00 | 0.00 | 92 | 1009.8 |
| 20260509054459 | 5 | 61 | 3.2 | 4.8 | 0.00 | 0.00 | 0.00 | 92 | 1009.7 |
| 20260509053957 | 5 | 50 | 3.2 | 4.8 | 0.00 | 0.00 | 0.00 | 91 | 1009.8 |
| 20260509053455 | 5 | 43 | 4.8 | 4.8 | 0.00 | 0.00 | 0.00 | 91 | 1009.9 |
| 20260509052952 | 5 | 40 | 3.2 | 3.2 | 0.00 | 0.00 | 0.00 | 91 | 1009.7 |
| 20260509052450 | 5 | 65 | 3.2 | 4.8 | 0.00 | 0.00 | 0.00 | 92 | 1009.8 |
| 20260509051947 | 5 | 72 | 3.2 | 3.2 | 0.00 | 0.00 | 0.00 | 92 | 1009.8 |
| 20260509051445 | 5 | 55 | 3.2 | 3.2 | 0.00 | 0.00 | 0.00 | 92 | 1009.8 |
| 20260509050942 | 5 | 55 | 3.2 | 3.2 | 0.00 | 0.00 | 0.00 | 92 | 1009.7 |
| 20260509050438 | 5 | 55 | 3.2 | 3.2 | 0.00 | 0.00 | 0.00 | 92 | 1009.8 |
| 20260509045935 | 5 | 41 | 3.2 | 4.8 | 0.00 | 0.00 | 0.00 | 91 | 1009.6 |
| 20260509045432 | 5 | 45 | 3.2 | 4.8 | 0.00 | 0.00 | 0.00 | 91 | 1009.6 |
| 20260509044929 | 5 | 41 | 3.2 | 4.8 | 0.00 | 0.00 | 0.00 | 91 | 1009.9 |
| 20260509044427 | 5 | 61 | 3.2 | 4.8 | 0.00 | 0.00 | 0.00 | 90 | 1009.9 |
| 20260509043924 | 5 | 74 | 3.2 | 4.8 | 0.00 | 0.00 | 0.00 | 90 | 1009.9 |
| 20260509043419 | 5 | 42 | 3.2 | 3.2 | 0.00 | 0.00 | 0.00 | 91 | 1009.8 |
| 20260509042915 | 5 | 67 | 3.2 | 4.8 | 0.00 | 0.00 | 0.00 | 91 | 1010.0 |
| 20260509042413 | 5 | 65 | 3.2 | 3.2 | 0.00 | 0.00 | 0.00 | 91 | 1009.9 |
| 20260509041909 | 5 | 44 | 3.2 | 3.2 | 0.00 | 0.00 | 0.00 | 92 | 1010.2 |
| 20260509041406 | 5 | 60 | 3.2 | 3.2 | 0.00 | 0.00 | 0.00 | 93 | 1010.4 |
| 20260509040904 | 5 | 57 | 3.2 | 3.2 | 0.00 | 0.00 | 0.00 | 92 | 1010.0 |
| 20260509040402 | 5 | 92 | 3.2 | 4.8 | 0.00 | 0.00 | 0.00 | 92 | 1010.2 |
| 20260509035859 | 5 | 86 | 3.2 | 3.2 | 0.00 | 0.00 | 0.00 | 91 | 1010.0 |
| 20260509035356 | 5 | 74 | 3.2 | 3.2 | 0.00 | 0.00 | 0.00 | 91 | 1010.2 |
| 20260509034852 | 4 | 60 | 3.2 | 3.2 | 0.00 | 0.00 | 0.00 | 91 | 1010.1 |
| 20260509034350 | 4 | 78 | 3.2 | 3.2 | 0.00 | 0.00 | 0.00 | 90 | 1010.1 |
| 20260509033847 | 5 | 73 | 3.2 | 3.2 | 0.00 | 0.00 | 0.00 | 90 | 1010.0 |
| 20260509033344 | 5 | 48 | 3.2 | 3.2 | 0.00 | 0.00 | 0.00 | 89 | 1010.2 |